Istanbul, Turkey

8:09 PM +03 on December 15, 2017 (GMT +0300)
Ataturk

Weather History for LTBA - July, 2013

Change the Weather History Date:

Sunday, July 28, 2013

  Actual Average Record
Temperature  
Mean Temperature 78 °F -  
Max Temperature 86 °F 82 °F 99 °F (2015)
Min Temperature 69 °F 69 °F 66 °F (1996)
Cooling Degree Days 12    
Growing Degree Days 28 (Base 50)    
Moisture  
Dew Point 58 °F    
Average Humidity 51    
Maximum Humidity 73    
Minimum Humidity 22    
Precipitation  
Precipitation 0.00 in - - ()
Sea Level Pressure  
Sea Level Pressure 30.03 in    
Wind  
Wind Speed 8 mph ()    
Max Wind Speed 14 mph    
Max Gust Speed -    
Visibility 6.5 miles    
Events      
Averages and records for this station are not official NWS values.
T = Trace of Precipitation, MM = Missing Value Source: Averaged Metar Reports

Daily Weather History Graph

Daily Weather History Graph

Search for Another Location

Airport or City:

Trip Planner

Search our weather history database for the weather conditions in past years. The results will help you decide how hot, cold, wet, or windy it might be!

Date:

Astronomy

Jul. 28, 2013 Rise Set
Actual Time 5:56 AM EEST 8:24 PM EEST
Civil Twilight 5:25 AM EEST 8:56 PM EEST
Nautical Twilight 4:46 AM EEST 9:34 PM EEST
Astronomical Twilight 4:03 AM EEST 10:18 PM EEST
Moon 11:31 PM EEST (7/28) 12:22 PM EEST (7/28)
Length of Visible Light 15h 30m
Length of Day
14h 28m
Waning Gibbous, 64% of the Moon is Illuminated
Jul 28
Waning Gibbous
Jul 29
Last Quarter
Aug 7
New
Aug 14
First Quarter
Aug 21
Full

Hourly Weather History & Observations

Time (EEST) Temp. Heat Index Dew Point Humidity Pressure Visibility Wind Dir Wind Speed Gust Speed Precip Events Conditions
12:20 AM 75.2 °F - 60.8 °F 61% 29.98 in - ENE 8.1 mph - N/A   Clear
12:50 AM 75.2 °F - 60.8 °F 61% 29.98 in - NE 6.9 mph - N/A   Clear
1:20 AM 77.0 °F - 60.8 °F 57% 29.98 in - East 9.2 mph - N/A   Clear
1:50 AM 75.2 °F - 60.8 °F 61% 29.98 in - Variable 5.8 mph - N/A   Clear
2:20 AM 73.4 °F - 60.8 °F 65% 29.98 in - East 9.2 mph - N/A   Clear
2:50 AM 71.6 °F - 60.8 °F 69% 29.98 in - SE 9.2 mph - N/A   Clear
3:00 AM 72 °F - 60 °F 57% 29.98 in 12 mi SE 9.2 mph - -  
3:20 AM 71.6 °F - 60.8 °F 69% 29.98 in - North 9.2 mph - N/A   Clear
3:50 AM 69.8 °F - 60.8 °F 73% 29.98 in - North 9.2 mph - N/A   Clear
4:20 AM 69.8 °F - 60.8 °F 73% 29.98 in - NNW 9.2 mph - N/A   Clear
4:50 AM 69.8 °F - 60.8 °F 73% 29.98 in - NW 9.2 mph - N/A   Clear
5:20 AM 69.8 °F - 60.8 °F 73% 29.98 in - NNW 9.2 mph - N/A   Clear
5:50 AM 69.8 °F - 60.8 °F 73% 30.01 in - NNW 9.2 mph - N/A   Clear
6:20 AM 69.8 °F - 60.8 °F 73% 30.01 in - NNW 9.2 mph - N/A   Clear
6:50 AM 71.6 °F - 62.6 °F 73% 30.01 in - NNW 5.8 mph - N/A   Clear
7:20 AM 73.4 °F - 62.6 °F 69% 30.01 in - NNW 5.8 mph - N/A   Clear
7:50 AM 77.0 °F - 62.6 °F 61% 30.01 in - North 6.9 mph - N/A   Clear
8:20 AM 77.0 °F - 60.8 °F 57% 30.04 in - NNE 9.2 mph - N/A   Clear
8:50 AM 77.0 °F - 60.8 °F 57% 30.04 in - NNE 9.2 mph - N/A   Clear
9:00 AM 78 °F - 59 °F 42% 30.04 in 6 mi NNE 9.2 mph - -  
9:20 AM 78.8 °F - 60.8 °F 54% 30.04 in - Variable 8.1 mph - N/A   Clear
9:50 AM 80.6 °F 81.1 °F 59.0 °F 48% 30.04 in 6.2 mi Variable 6.9 mph - N/A   Scattered Clouds
10:20 AM 80.6 °F 81.1 °F 59.0 °F 48% 30.04 in 6.2 mi North 6.9 mph - N/A   Scattered Clouds
10:50 AM 80.6 °F 80.8 °F 57.2 °F 45% 30.04 in 6.2 mi NNE 9.2 mph - N/A   Scattered Clouds
11:20 AM 82.4 °F 81.7 °F 55.4 °F 39% 30.04 in 6.2 mi NNE 10.4 mph - N/A   Scattered Clouds
11:50 AM 84.2 °F 82.8 °F 53.6 °F 35% 30.04 in 6.2 mi NNE 10.4 mph - N/A   Scattered Clouds
12:20 PM 84.2 °F - 51.8 °F 33% 30.04 in 6.2 mi NNE 10.4 mph - N/A   Scattered Clouds
12:50 PM 84.2 °F - 51.8 °F 33% 30.04 in 6.2 mi NE 9.2 mph - N/A   Scattered Clouds
1:20 PM 86.0 °F 84.2 °F 53.6 °F 33% 30.04 in 6.2 mi NNE 10.4 mph - N/A   Scattered Clouds
1:50 PM 86.0 °F - 51.8 °F 31% 30.04 in 6.2 mi NE 9.2 mph - N/A   Partly Cloudy
2:20 PM 86.0 °F 84.2 °F 53.6 °F 33% 30.04 in 6.2 mi NNW 12.7 mph - N/A   Partly Cloudy
2:50 PM 86.0 °F 84.2 °F 53.6 °F 33% 30.04 in 6.2 mi NNE 11.5 mph - N/A   Partly Cloudy
3:00 PM 86 °F - 53 °F 22% 30.04 in 6 mi NNE 11.5 mph - -   Scattered Clouds
3:20 PM 86.0 °F 84.2 °F 53.6 °F 33% 30.04 in 6.2 mi NE 12.7 mph - N/A   Partly Cloudy
3:50 PM 84.2 °F 82.8 °F 53.6 °F 35% 30.04 in 6.2 mi NNE 12.7 mph - N/A   Partly Cloudy
4:20 PM 84.2 °F 82.8 °F 53.6 °F 35% 30.04 in 6.2 mi North 13.8 mph - N/A   Partly Cloudy
4:50 PM 84.2 °F 83.0 °F 55.4 °F 37% 30.04 in - NNE 13.8 mph - N/A   Clear
5:20 PM 84.2 °F 83.0 °F 55.4 °F 37% 30.04 in - ENE 12.7 mph - N/A   Clear
5:50 PM 82.4 °F 81.4 °F 53.6 °F 37% 30.04 in - NE 12.7 mph - N/A   Clear
6:20 PM 82.4 °F 81.7 °F 55.4 °F 39% 30.04 in - NNE 11.5 mph - N/A   Clear
6:50 PM 82.4 °F 81.7 °F 55.4 °F 39% 30.04 in - NNE 11.5 mph - N/A   Clear
7:20 PM 80.6 °F 80.8 °F 57.2 °F 45% 30.04 in - NNE 12.7 mph - N/A   Clear
7:50 PM 80.6 °F 80.5 °F 55.4 °F 42% 30.04 in - NNE 11.5 mph - N/A   Clear
8:20 PM 78.8 °F - 59.0 °F 51% 30.04 in - Variable 10.4 mph - N/A   Clear
8:50 PM 78.8 °F - 59.0 °F 51% 30.04 in - NE 8.1 mph - N/A   Clear
9:00 PM 78 °F - 58 °F 40% 30.05 in 6 mi NE 8.1 mph - -  
9:20 PM 77.0 °F - 59.0 °F 54% 30.06 in - NE 9.2 mph - N/A   Clear
9:50 PM 77.0 °F - 59.0 °F 54% 30.06 in - East 6.9 mph - N/A   Clear
10:20 PM 77.0 °F - 60.8 °F 57% 30.06 in - NE 5.8 mph - N/A   Clear
10:50 PM 77.0 °F - 62.6 °F 61% 30.06 in - NE 9.2 mph - N/A   Clear
11:20 PM 75.2 °F - 62.6 °F 65% 30.06 in - ENE 9.2 mph - N/A   Clear
11:50 PM 75.2 °F - 62.6 °F 65% 30.06 in - East 8.1 mph - N/A   Clear